FW8607 Weather Reports


Display with metric or nautical units.
time (UTC)temp
F
wind
direction
speed
MPH
gust
MPH
rain 1hr
in
rain 24hr
in
rain mn
in
humidity
%
barometer
mb
20260509030020 63 270 5.0 8.0 0.00 0.00 0.00 83 1013.0
20260509023020 66 270 6.0 8.0 0.00 0.00 0.00 78 1012.9
20260509020020 69 248 6.0 10.0 0.00 0.00 0.00 73 1012.7
20260509013020 71 248 5.0 11.0 0.00 0.00 0.00 70 1012.8
20260509010021 72 248 6.0 11.0 0.00 0.00 0.00 68 1012.7
20260509003020 72 248 7.0 14.0 0.00 0.00 0.00 68 1012.6
20260509000042 73 248 7.0 14.0 0.00 0.00 0.00 66 1012.8
20260508233020 73 248 8.0 18.0 0.00 0.00 0.00 67 1012.9
20260508230020 74 248 9.0 16.0 0.00 0.00 0.00 65 1013.3
20260508223021 74 248 11.0 20.0 0.00 0.00 0.00 64 1013.4
20260508213020 79 248 9.0 16.0 0.00 0.00 0.00 58 1013.9
20260508210020 78 293 7.0 15.0 0.00 0.00 0.00 59 1014.0
20260508203019 77 293 8.0 14.0 0.00 0.00 0.00 61 1014.1
20260508200118 77 338 6.0 13.0 0.00 0.00 0.00 60 1014.2
20260508193118 75 338 6.0 12.0 0.00 0.00 0.00 63 1014.5
20260508190118 72 338 6.0 14.0 0.00 0.00 0.00 69 1014.9
20260508183118 70 338 7.0 13.0 0.00 0.00 0.00 74 1015.1
20260508180117 67 315 4.0 10.0 0.00 0.00 0.00 78 1015.1
20260508173139 64 270 2.0 6.0 0.00 0.00 0.00 89 1015.1
20260508170119 61 248 2.0 7.0 0.00 0.00 0.00 94 1015.0
20260508163137 58 338 2.0 5.0 0.00 0.00 0.00 96 1015.2
20260508160117 58 0 1.0 4.0 0.00 0.00 0.00 96 1015.2
20260508153117 57 338 2.0 4.0 0.00 0.00 0.00 95 1015.3
20260508150138 57 293 1.0 3.0 0.00 0.00 0.00 95 1015.4
20260508143117 57 293 1.0 3.0 0.00 0.00 0.00 95 1015.4
20260508140137 57 315 1.0 4.0 0.00 0.00 0.00 95 1015.2
20260508133118 57 203 1.0 3.0 0.00 0.00 0.00 95 1015.0
20260508130117 57 68 2.0 4.0 0.00 0.00 0.00 95 1015.0
20260508123117 57 0.0 3.0 0.00 0.00 0.00 95 1015.0
20260508120116 57 0.0 3.0 0.00 0.00 0.00 95 1014.9
20260508113116 57 90 2.0 4.0 0.00 0.00 0.00 95 1014.8
20260508110116 57 113 2.0 3.0 0.00 0.00 0.00 94 1014.8
20260508103116 57 135 1.0 4.0 0.00 0.00 0.00 94 1015.1
20260508100116 58 113 1.0 4.0 0.00 0.00 0.00 94 1015.3
20260508093116 58 90 1.0 3.0 0.00 0.00 0.00 94 1015.1
20260508090116 58 158 1.0 6.0 0.00 0.00 0.00 94 1015.2
20260508083116 58 0.0 3.0 0.00 0.00 0.00 93 1015.5
20260508080117 58 0.0 0.0 0.00 0.00 0.00 93 1015.7
20260508073116 58 0.0 4.0 0.00 0.00 0.00 93 1015.7
20260508070116 58 0.0 2.0 0.00 0.00 0.00 93 1016.0
20260508063116 58 270 1.0 4.0 0.00 0.00 0.00 93 1016.2
20260508060116 58 248 1.0 4.0 0.00 0.00 0.00 92 1015.8
20260508053117 58 248 2.0 4.0 0.00 0.00 0.00 92 1015.9
20260508050116 58 0.0 4.0 0.00 0.00 0.00 91 1015.7
20260508043116 58 248 3.0 8.0 0.00 0.00 0.00 91 1015.5
20260508040115 59 248 6.0 10.0 0.00 0.00 0.00 89 1015.0
20260508033136 60 248 7.0 11.0 0.00 0.00 0.00 87 1014.7